{"data":{"norad_id":66575,"epoch":"2026-05-24T18:30:17.870688Z","epoch_age_seconds":88848,"freshness":"FRESH","line1":"1 66575U 25268U   26144.77104017  .00019587  00000+0  71914-3 0  9990","line2":"2 66575  43.0012 277.5527 0001926 253.8677 106.1963 15.27592213 29590","mean_motion":15.27592213,"eccentricity":0.0001926,"inclination_deg":43.0012,"raan_deg":277.5527,"arg_perigee_deg":253.8677,"mean_anomaly_deg":106.1963,"bstar":0.00071914,"rev_number":2959,"period_min":94.265995057151,"perigee_km":481.69106876896,"apogee_km":484.33398356644,"semimajor_km":6861.1495261677,"source":"CELESTRAK","updated_at":"2026-05-25T13:38:21.283638Z"}}